Weather Service Report


797 
ASUS44 KBMX 260610
RWRAL 
             
ALABAMA REGIONAL WEATHER ROUNDUP
NATIONAL WEATHER SERVICE BIRMINGHAM AL
100 AM CDT SUN JUN 26 2016

NOTE: "FAIR" INDICATES FEW OR NO CLOUDS BELOW 12,000 FEET
WITH NO SIGNIFICANT WEATHER AND/OR OBSTRUCTIONS TO VISIBILITY.

THE REMARK "TC" DENOTES TEMPERATURE IN DEGREES CELSIUS.

ALZ001>011-014-016>018-020-260700-
NORTH ALABAMA
  
CITY           SKY/WX    TMP DP  RH WIND       PRES   REMARKS
MUSCLE SHOALS  CLEAR     74  70  87 CALM      30.09F                  
6HR MIN TEMP:  74; 6HR MAX TEMP:  84;                                

HUNTSVILLE     CLOUDY    75  67  76 E6        30.09F                  
6HR MIN TEMP:  75; 6HR MAX TEMP:  83; 6HR PCP:  0.02;                

DECATUR        MOCLDY    74  67  78 CALM      30.09F                  
6HR MIN TEMP:  73; 6HR MAX TEMP:  89;                                

HALEYVILLE     FAIR      75  73  93 CALM      30.12S                  
6HR MIN TEMP:  74; 6HR MAX TEMP:  90; 6HR PCP:  0.02;                

GADSDEN        PTCLDY    75  72  90 CALM      30.08F                  
6HR MIN TEMP:  75; 6HR MAX TEMP:  84; 6HR PCP: TRACE;                

$$
 
ALZ012-013-022-023-030>036-040>044-260700-
WEST CENTRAL ALABAMA
  
CITY           SKY/WX    TMP DP  RH WIND       PRES   REMARKS
TUSCALOOSA     PTCLDY    77  75  93 CALM      30.07R                  
6HR MIN TEMP:  77; 6HR MAX TEMP:  91;                                

$$
 
ALZ015-024>027-033>036-040>044-260700-
CENTRAL ALABAMA
  
CITY           SKY/WX    TMP DP  RH WIND       PRES   REMARKS
BIRMINGHAM     PTCLDY    77  73  87 CALM      30.10F                  
6HR MIN TEMP:  77; 6HR MAX TEMP:  86;                                

MONTGOMERY     PTCLDY    79  73  82 CALM      30.06S                  
6HR MIN TEMP:  79; 6HR MAX TEMP:  94;                                

SHELBY CO ARPT CLEAR     78  73  84 CALM      30.08F                  
6HR MIN TEMP:  78; 6HR MAX TEMP:  89;                                

MAXWELL AFB    PTCLDY    79  74  86 SW1       30.05S                  
6HR MIN TEMP:  79; 6HR MAX TEMP:  94; 6HR PCP: TRACE;                

GREENVILLE     FAIR      80  72  76 SW7       30.07F                  
6HR MIN TEMP:  76; 6HR MAX TEMP:  94;                                

$$
 
ALZ019-021-028-029-037-038-045>048-260700-
EAST CENTRAL ALABAMA
  
CITY           SKY/WX    TMP DP  RH WIND       PRES   REMARKS
ANNISTON       MOCLDY    75  71  87 SW3       30.08F                  
6HR MIN TEMP:  75; 6HR MAX TEMP:  81;                                

ALEXANDER CITY PTCLDY    78  78 100 CALM      30.08F                  
6HR MIN TEMP:  78; 6HR MAX TEMP:  88;                                

AUBURN         PTCLDY    78  74  87 CALM      30.09F                  
6HR MIN TEMP:  78; 6HR MAX TEMP:  88;                                

$$
 
ALZ051>064-260700-
SOUTHWEST ALABAMA
  
CITY           SKY/WX    TMP DP  RH WIND       PRES   REMARKS
MOBILE         CLEAR     79  73  82 SW5       30.08F                  
6HR MIN TEMP:  77; 6HR MAX TEMP:  87;                                

BROOKLEY FIELD CLEAR     80  74  81 CALM      30.08F                  
6HR MIN TEMP:  80; 6HR MAX TEMP:  88;                                

EVERGREEN      PTCLDY    79  73  82 CALM      30.08S                  
6HR MIN TEMP:  79; 6HR MAX TEMP:  92;                                

$$

ALZ049-050-065>069-260700-
SOUTHEAST ALABAMA
  
CITY           SKY/WX    TMP DP  RH WIND       PRES   REMARKS
DOTHAN         CLEAR     80  74  81 SW6       30.11S                  
6HR MIN TEMP:  80; 6HR MAX TEMP:  93;                                

OZARK          PTCLDY    80  74  84 SW5       30.08R                  
6HR MIN TEMP:  79; 6HR MAX TEMP:  94;                                

TROY           CLEAR     76  74  93 CALM      30.08S                  
6HR MIN TEMP:  75; 6HR MAX TEMP:  91;                                

EUFAULA        FAIR      75  70  84 CALM      30.05F                  
6HR MIN TEMP:  74; 6HR MAX TEMP:  90;                                

$$
  

Return to Home page


Western Regional Climate Center, wrcc@dri.edu